[Iaude] MPEC M130: 2020 MN3 [a=1.42,e=0.28,i=16.9,H=23.2]

mpec at marsden.cfa.harvard.edu mpec at marsden.cfa.harvard.edu
Sun Jun 28 07:05:28 EDT 2020


M.P.E.C. 2020-M130                                Issued 2020 June 28, 11:04 UT

     The Minor Planet Electronic Circulars contain information on unusual
         minor planets and routine data on comets.  They are published
    on behalf of Division F of the International Astronomical Union by the
          Minor Planet Center, Smithsonian Astrophysical Observatory,
                          Cambridge, MA 02138, U.S.A.

             Prepared using the Tamkin Foundation Computer Network

                              MPC at CFA.HARVARD.EDU
            URL https://www.minorplanetcenter.net/    ISSN 1523-6714

                                    2020 MN3                                    


Observations:
     K20M03N* C2020 06 26.57038322 57 39.112+00 40 35.68         21.39wUEM130F52
     K20M03N  C2020 06 26.59299722 57 43.141+00 37 32.17         20.97wUEM130F52
     K20M03N  C2020 06 26.60435322 57 45.180+00 35 58.22         21.64wUEM130F52
     K20M03N KC2020 06 27.02214322 59 11.85 -00 20 53.9          20.8 GVEM130L01
     K20M03N IC2020 06 27.02697922 59 12.77 -00 21 33.8          20.9 GVEM130L01
     K20M03N IC2020 06 27.03269922 59 13.87 -00 22 19.9          20.8 GVEM130L01
     K20M03N KC2020 06 28.06994923 02 40.44 -02 42 01.9                VEM130104
     K20M03N KC2020 06 28.08113223 02 42.49 -02 43 31.8          20.5 GVEM130104

Observer details:
104 San Marcello Pistoiese.  Observers P. Bacci, M. Maestripieri, M. D.
    Grazia.  Measurers P. Bacci, L. Tesi, G. Fagioli.  0.60-m reflector + CCD.
F52 Pan-STARRS 2, Haleakala.  Observers J. Bulger, T. Dukes, T. Lowe, A.
    Schultz, M. Willman.  Measurers K. Chambers, S. Chastel, T. de Boer, L.
    Denneau, J. Fairlamb, H. Flewelling, M. Huber, C.-C. Lin, E. Magnier, Y.
    Ramanjooloo, R. Wainscoat, R. Weryk.  1.8-m Ritchey-Chretien + CCD.
L01 Visnjan Observatory, Tican.  Observer K. Korlevic.  1.0-m f/2.9 reflector
    + CCD.

Orbital elements:
2020 MN3                                                 Earth MOID = 0.0509 AU
Epoch 2020 May 31.0 TT = JDT 2459000.5                  Veres
M   4.66726              (2000.0)            P               Q
n   0.58485055     Peri.  140.91065     -0.39225561     +0.87542070
a   1.4161398      Node   104.33115     -0.90004577     -0.30188563
e   0.2793059      Incl.   16.94866     -0.18987666     -0.37749658
P   1.69           H   23.2           G   0.15           U   9
Residuals in seconds of arc
200626 F52  0.1-  0.5+    200627 L01  0.1-  0.5+    200628 104  0.4-  0.1-
200626 F52  0.2-  0.5+    200627 L01  0.1+  0.2-    200628 104  0.3+  0.1+
200626 F52  0.0   1.2-    200627 L01  0.4+  0.0

Ephemeris:
2020 MN3                 a,e,i = 1.42, 0.28, 17                  q = 1.0206
Date    TT    R. A. (2000) Decl.     Delta      r    Elong.  Phase     V
2020 05 29    20 56 30.1 +48 19 57   0.1835  1.0220    87.5    82.2    22.4
...
2020 06 13    22 04 46.8 +28 56 14   0.1417  1.0377    95.1    77.1    21.7
...
2020 06 21    22 37 26.4 +13 07 07   0.1300  1.0528   102.8    70.3    21.3
...
2020 06 27    22 59 04.8 -00 17 00   0.1290  1.0668   109.6    63.9    21.2
2020 06 28    23 02 24.7 -02 31 43   0.1296  1.0693   110.7    62.8    21.1
2020 06 29    23 05 39.6 -04 45 24   0.1304  1.0719   111.8    61.7    21.1
...
2020 07 05    23 23 18.5 -17 23 58   0.1393  1.0886   117.8    55.7    21.1
...
2020 07 13    23 41 24.2 -31 16 08   0.1606  1.1137   123.7    49.4    21.3
...
2020 07 28    23 55 58.1 -47 51 58   0.2194  1.1673   129.5    42.2    21.9

M. P. C. Staff               (C) Copyright 2020 MPC           M.P.E.C. 2020-M130




More information about the Iaude mailing list